• In Deutschland
  • Länderverzeichnis
  • Für 7 Tage
  • Wassertemperatur
  • Satellitenkarten
  • Wetterkarte
  • Widgets
  • user-avatar
    Anmelden

    Stündliche Wetter Gummersbach

    Heute, 17 Dezember, Sonntag

    Zeit Temperatur Niederschläge Wind Luftdruck Luftfeuchtigkeit
    00:00 -1°C° 0,1 mm 3 m/S 732 mmHg 91%
    01:00 -1°C° 0 mm 2 m/S 733 mmHg 92%
    02:00 -1°C° 0,1 mm 2 m/S 733 mmHg 92%
    03:00 -1°C° 0,1 mm 3 m/S 733 mmHg 92%
    04:00 -1°C° 0,1 mm 3 m/S 734 mmHg 91%
    05:00 -1°C° 0 mm 3 m/S 734 mmHg 92%
    06:00 -1°C° 0 mm 3 m/S 734 mmHg 92%
    07:00 -2°C° 0 mm 2 m/S 735 mmHg 93%
    08:00 -1°C° 0 mm 2 m/S 735 mmHg 92%
    09:00 -1°C° 0 mm 2 m/S 736 mmHg 91%
    10:00 -1°C° 0 mm 3 m/S 736 mmHg 90%
    11:00 -1°C° 0 mm 2 m/S 736 mmHg 88%
    12:00 +1°C° 0 mm 2 m/S 737 mmHg 86%
    13:00 +1°C° 0 mm 2 m/S 737 mmHg 84%
    14:00 +1°C° 0 mm 2 m/S 737 mmHg 86%
    15:00 +1°C° 0 mm 2 m/S 737 mmHg 87%
    16:00 +1°C° 0 mm 2 m/S 737 mmHg 88%
    17:00 -1°C° 0 mm 2 m/S 737 mmHg 90%
    18:00 -1°C° 0 mm 2 m/S 737 mmHg 91%
    19:00 -1°C° 0 mm 2 m/S 738 mmHg 92%
    20:00 -1°C° 0 mm 2 m/S 737 mmHg 90%
    21:00 -1°C° 0 mm 3 m/S 737 mmHg 89%
    22:00 -1°C° 0 mm 3 m/S 737 mmHg 88%
    23:00 -1°C° 0,4 mm 3 m/S 736 mmHg 87%

    Morgen, 18 Dezember, Montag

    Zeit Temperatur Niederschläge Wind Luftdruck Luftfeuchtigkeit
    00:00 -2°C° 0,4 mm 4 m/S 736 mmHg 87%
    01:00 -2°C° 0,4 mm 4 m/S 735 mmHg 87%
    02:00 -2°C° 0,7 mm 4 m/S 735 mmHg 88%
    03:00 -2°C° 0,7 mm 4 m/S 734 mmHg 89%
    04:00 -2°C° 0,7 mm 4 m/S 733 mmHg 90%
    05:00 0°C° 0,5 mm 3 m/S 733 mmHg 91%
    06:00 0°C° 0,5 mm 3 m/S 733 mmHg 93%
    07:00 +1°C° 0,5 mm 2 m/S 733 mmHg 94%
    08:00 +1°C° 0,3 mm 2 m/S 734 mmHg 95%
    09:00 +2°C° 0,3 mm 1 m/S 734 mmHg 96%
    10:00 +2°C° 0,3 mm 1 m/S 735 mmHg 97%
    11:00 +3°C° 0,1 mm 1 m/S 735 mmHg 96%
    12:00 +3°C° 0,1 mm 1 m/S 736 mmHg 95%
    13:00 +4°C° 0,1 mm 1 m/S 736 mmHg 94%
    14:00 +4°C° 0 mm 1 m/S 736 mmHg 94%
    15:00 +4°C° 0 mm 1 m/S 737 mmHg 95%
    16:00 +3°C° 0 mm 1 m/S 737 mmHg 95%
    17:00 +3°C° 0,1 mm 1 m/S 738 mmHg 96%
    18:00 +2°C° 0,1 mm 2 m/S 739 mmHg 96%
    19:00 +2°C° 0,1 mm 2 m/S 739 mmHg 96%
    20:00 +2°C° 0 mm 2 m/S 740 mmHg 97%
    21:00 +2°C° 0 mm 2 m/S 740 mmHg 97%
    22:00 +2°C° 0 mm 2 m/S 741 mmHg 97%
    23:00 +2°C° 0 mm 2 m/S 741 mmHg 97%

    übermorgen, 19 Dezember, Dienstag

    Zeit Temperatur Niederschläge Wind Luftdruck Luftfeuchtigkeit
    00:00 +2°C° 0 mm 2 m/S 741 mmHg 97%
    01:00 +2°C° 0 mm 2 m/S 742 mmHg 97%
    02:00 +2°C° 0 mm 2 m/S 742 mmHg 97%
    03:00 +2°C° 0 mm 2 m/S 742 mmHg 97%
    04:00 +2°C° 0 mm 2 m/S 743 mmHg 97%
    05:00 +2°C° 0 mm 1 m/S 743 mmHg 97%
    06:00 +2°C° 0 mm 1 m/S 743 mmHg 97%
    07:00 +2°C° 0 mm 1 m/S 743 mmHg 97%
    08:00 +2°C° 0 mm 1 m/S 744 mmHg 96%
    09:00 +2°C° 0 mm 1 m/S 744 mmHg 96%
    10:00 +2°C° 0 mm 1 m/S 745 mmHg 95%
    11:00 +3°C° 0 mm 1 m/S 745 mmHg 94%
    12:00 +3°C° 0 mm 1 m/S 745 mmHg 93%
    13:00 +3°C° 0 mm 2 m/S 745 mmHg 91%
    14:00 +2°C° 0 mm 2 m/S 745 mmHg 92%
    15:00 +2°C° 0 mm 2 m/S 745 mmHg 93%
    16:00 +2°C° 0 mm 2 m/S 745 mmHg 95%
    17:00 +2°C° 0 mm 2 m/S 745 mmHg 95%
    18:00 +2°C° 0 mm 2 m/S 745 mmHg 96%
    19:00 +2°C° 0 mm 2 m/S 745 mmHg 97%
    20:00 +2°C° 0 mm 2 m/S 745 mmHg 97%
    21:00 +2°C° 0 mm 2 m/S 745 mmHg 96%
    22:00 +2°C° 0 mm 2 m/S 745 mmHg 96%
    23:00 +2°C° 0 mm 2 m/S 745 mmHg 96%

    20 Dezember, Mittwoch

    Zeit Temperatur Niederschläge Wind Luftdruck Luftfeuchtigkeit
    00:00 +2°C° 0 mm 2 m/S 745 mmHg 95%
    01:00 +2°C° 0 mm 2 m/S 744 mmHg 94%
    02:00 +2°C° 0 mm 2 m/S 744 mmHg 95%
    03:00 +2°C° 0 mm 2 m/S 744 mmHg 95%
    04:00 +2°C° 0 mm 2 m/S 744 mmHg 95%
    05:00 +2°C° 0 mm 2 m/S 744 mmHg 95%
    06:00 +2°C° 0 mm 2 m/S 743 mmHg 96%
    07:00 +2°C° 0 mm 2 m/S 743 mmHg 96%
    08:00 +2°C° 0 mm 2 m/S 743 mmHg 96%
    09:00 +2°C° 0 mm 2 m/S 744 mmHg 96%
    10:00 +3°C° 0 mm 2 m/S 744 mmHg 97%
    11:00 +3°C° 0 mm 2 m/S 744 mmHg 96%
    12:00 +4°C° 0 mm 2 m/S 744 mmHg 96%
    13:00 +4°C° 0 mm 2 m/S 743 mmHg 96%
    14:00 +4°C° 0 mm 2 m/S 743 mmHg 96%
    15:00 +4°C° 0 mm 2 m/S 743 mmHg 97%
    16:00 +4°C° 0 mm 2 m/S 743 mmHg 97%
    17:00 +4°C° 0,1 mm 2 m/S 743 mmHg 98%
    18:00 +4°C° 0,1 mm 2 m/S 744 mmHg 98%
    19:00 +5°C° 0,1 mm 1 m/S 744 mmHg 98%
    20:00 +4°C° 0,1 mm 2 m/S 744 mmHg 98%
    21:00 +4°C° 0,1 mm 2 m/S 744 mmHg 98%
    22:00 +5°C° 0,1 mm 2 m/S 744 mmHg 98%
    23:00 +5°C° 0,1 mm 2 m/S 744 mmHg 98%

    21 Dezember, Donnerstag

    Zeit Temperatur Niederschläge Wind Luftdruck Luftfeuchtigkeit
    00:00 +5°C° 0,1 mm 2 m/S 744 mmHg 98%
    01:00 +5°C° 0,1 mm 2 m/S 744 mmHg 98%
    02:00 +5°C° 0,3 mm 2 m/S 744 mmHg 98%
    03:00 +6°C° 0,3 mm 2 m/S 744 mmHg 97%
    04:00 +5°C° 0,3 mm 3 m/S 743 mmHg 97%
    05:00 +5°C° 0,5 mm 3 m/S 743 mmHg 97%
    06:00 +5°C° 0,5 mm 3 m/S 743 mmHg 97%
    07:00 +5°C° 0,5 mm 3 m/S 743 mmHg 97%
    08:00 +6°C° 0,2 mm 2 m/S 744 mmHg 97%
    09:00 +6°C° 0,2 mm 2 m/S 744 mmHg 98%
    10:00 +6°C° 0,2 mm 2 m/S 744 mmHg 98%
    11:00 +6°C° 0,1 mm 2 m/S 744 mmHg 97%
    12:00 +7°C° 0,1 mm 2 m/S 744 mmHg 97%
    13:00 +7°C° 0,1 mm 2 m/S 744 mmHg 96%
    14:00 +6°C° 0,1 mm 2 m/S 744 mmHg 96%
    15:00 +6°C° 0,1 mm 2 m/S 744 mmHg 96%
    16:00 +6°C° 0,1 mm 2 m/S 744 mmHg 96%
    17:00 +6°C° 0,3 mm 2 m/S 744 mmHg 97%
    18:00 +6°C° 0,3 mm 2 m/S 744 mmHg 97%
    19:00 +5°C° 0,3 mm 2 m/S 744 mmHg 98%
    20:00 +5°C° 0,2 mm 2 m/S 744 mmHg 97%
    21:00 +5°C° 0,2 mm 2 m/S 744 mmHg 97%
    22:00 +5°C° 0,2 mm 2 m/S 744 mmHg 96%
    23:00 +4°C° 0 mm 2 m/S 744 mmHg 96%

    22 Dezember, Freitag

    Zeit Temperatur Niederschläge Wind Luftdruck Luftfeuchtigkeit
    00:00 +4°C° 0 mm 2 m/S 744 mmHg 96%
    01:00 +2°C° 0 mm 3 m/S 744 mmHg 96%
    02:00 +3°C° 0 mm 3 m/S 744 mmHg 95%
    03:00 +3°C° 0 mm 3 m/S 744 mmHg 94%
    04:00 +3°C° 0 mm 4 m/S 744 mmHg 93%
    05:00 +3°C° 0 mm 4 m/S 744 mmHg 93%
    06:00 +3°C° 0 mm 4 m/S 744 mmHg 92%
    07:00 +3°C° 0 mm 4 m/S 744 mmHg 91%
    08:00 +3°C° 0 mm 4 m/S 744 mmHg 90%
    09:00 +1°C° 0 mm 4 m/S 744 mmHg 90%
    10:00 +1°C° 0 mm 4 m/S 744 mmHg 89%
    11:00 +3°C° 0,1 mm 4 m/S 744 mmHg 87%
    12:00 +2°C° 0,1 mm 5 m/S 744 mmHg 85%
    13:00 +2°C° 0,1 mm 5 m/S 743 mmHg 83%
    14:00 +2°C° 0,1 mm 5 m/S 743 mmHg 83%
    15:00 +2°C° 0,1 mm 5 m/S 743 mmHg 83%
    16:00 +2°C° 0,1 mm 5 m/S 743 mmHg 82%
    17:00 +2°C° 0,1 mm 5 m/S 743 mmHg 83%
    18:00 +2°C° 0,1 mm 5 m/S 743 mmHg 84%
    19:00 +2°C° 0,1 mm 5 m/S 743 mmHg 85%
    20:00 +1°C° 0,1 mm 5 m/S 742 mmHg 85%
    21:00 +1°C° 0,1 mm 5 m/S 742 mmHg 85%
    22:00 +1°C° 0,1 mm 5 m/S 742 mmHg 85%
    23:00 +1°C° 0,1 mm 4 m/S 742 mmHg 84%
    Mehr zeigen